Regional Weather Roundup
Issued by NWS

Home | Current Version | Previous Version | Text Only | Print | Product List | Glossary Off
Versions: 1 2 3 4 5 6 7 8 9 10 11 12 13 14 15 16 17 18 19 20 21 22 23 24 25 26 27 28 29 30 31 32 33 34 35 36 37 38 39 40 41 42 43 44 45 46 47 48 49 50

000
ASUS45 KABQ 281010
RWRNM
NEW MEXICO REGIONAL WEATHER ROUNDUP
NATIONAL WEATHER SERVICE ALBUQUERQUE NM
400 AM MDT TUE JUL 28 2015

NOTE: "FAIR" MEANS FEW OR NO CLOUDS BELOW 12,000 FEET AGL WITH NO
       SIGNIFICANT WEATHER OR OBSTRUCTIONS TO VISION.

      THIS PRODUCT IS RELEASED AS TWO VERSIONS.  ONE VERSION NEAR
      THE TOP OF THE HOUR CONTAINING PRELIMINARY DATA FROM ALBUQUERQUE
      AND OTHER STATIONS.  A FINAL VERSION WITH ADDITIONAL DATA IS
      ISSUED ABOUT 10 MINUTES AFTER THE HOUR.

NMZ501-503-504-510>518-281100-
NORTHWEST PLATEAU/NORTHCENTRAL MOUNTAINS

CITY           SKY/WX    TMP DP  RH WIND       PRES   REMARKS
FARMINGTON     CLEAR     55  28  35 NE5       30.08S
LOS ALAMOS     MOCLDY    70  46  42 S8        30.23R
SANTA FE       CLOUDY    71  49  45 SE13      30.16R
TAOS           MOCLDY    55  43  62 N6        30.22S
ANGEL FIRE     FAIR      44  42  92 CALM      30.33S

$$
NMZ402-403-502-505>509-281100-
WESTCENTRAL MOUNTAINS/SOUTHWEST MOUNTAINS

CITY           SKY/WX    TMP DP  RH WIND       PRES   REMARKS
GALLUP         PTCLDY    61  38  42 CALM      30.20S
GRANTS         MOCLDY    58  53  82 CALM      30.22R
SILVER CITY      N/A     70  45  40 SE8       30.14R

$$
NMZ407-409-411-412-281100-
SOUTHERN DESERTS

CITY           SKY/WX    TMP DP  RH WIND       PRES   REMARKS
LORDSBURG      PTSUNNY   75  59  57 CALM      30.04S
DEMING         MOCLDY    77  61  57 S15G23    30.05R
LAS CRUCES     CLOUDY    73  60  63 SW17      30.07R
HOLLOMAN AFB   MOCLDY    81  53  38 SE18G28   30.00R
ALAMOGORDO     MOCLDY    81  54  39 S21G28    30.04R
T OR C         PTCLDY    73  53  49 CALM      30.05S

$$
NMZ519>523-281100-
CENTRAL VALLEYS/CENTRAL HIGHLANDS

CITY           SKY/WX    TMP DP  RH WIND       PRES   REMARKS
ALBUQUERQUE    MOCLDY    76  51  41 S6        30.09R
DOUBLE EAGLE   CLOUDY    67  57  70 S3        30.12S
MORIARTY ARPT    N/A     66  51  58 S7        30.17S
CLINES CORNERS MOCLDY    65  51  60 S15       30.22R
BELEN          FAIR      73  52  49 S7        30.08S
SOCORRO        FAIR      71  51  48 CALM      30.06S

$$
NMZ524>526-539-540-281100-
SOUTHCENTRAL MOUNTAINS

CITY           SKY/WX    TMP DP  RH WIND       PRES   REMARKS
RUIDOSO          N/A    N/A N/A N/A MISG        N/A

$$
NMZ527>531-281100-
NORTHEAST HIGHLANDS/NORTHEAST PLAINS

CITY           SKY/WX    TMP DP  RH WIND       PRES   REMARKS
LAS VEGAS      PTCLDY    60  51  72 S13       30.21R
RATON          MOCLDY    60  52  74 N7        30.14R
CLAYTON        CLOUDY    71  56  58 SW6       30.03S

$$
NMZ532>537-281100-
EASTCENTRAL PLAINS

CITY           SKY/WX    TMP DP  RH WIND       PRES   REMARKS
TUCUMCARI      MOCLDY    79  53  40 NW5       29.96S
CANNON AFB     MOCLDY    69  60  74 S8        30.01F
CLOVIS AIRPORT PTCLDY    66  59  77 S9        30.01F

$$
NMZ028-029-538-281100-
SOUTHEAST PLAINS

CITY           SKY/WX    TMP DP  RH WIND       PRES   REMARKS
ROSWELL        CLEAR     78  58  49 SE9       29.97S
ARTESIA        PTCLDY    75  61  60 CALM      29.98S
CARLSBAD       CLEAR     74  60  61 S7        29.94S
HOBBS          PTCLDY    77  59  53 S10       30.01S


$$


USA.gov is the U.S. government's official web portal to all federal, state and local government web resources and services.